Location: Recife
(8.0585°S, 34.8848°W)
Time: 12:31:52
(UTC-03:00)

Transit 4A - Pass Details

Date: 17 April 2026
Orbit: 861 x 980 km, 66.8° (Epoch: 12 May)

Event Time Altitude Azimuth Distance (km) Brightness Sun altitude
Rises 23:12:58 0° 7° (N) 3,652 - -86.9°
Reaches altitude 10° 23:16:04 10° 20° (NNE) 2,699 - -87.2°
Maximum altitude 23:20:58 24° 72° (ENE) 1,871 - -87.2°
Drops below altitude 10° 23:25:48 10° 123° (ESE) 2,660 - -86.8°
Sets 23:28:48 0° 136° (SE) 3,588 - -86.3°
